This is the latest recevied weather packets stored in our database for station/object K0WOI. If no packets are shown the sender has not sent any weather packets the latest 1 day(s).
| Time | Temp. | Humidity | Pressure | Rain* | Wind** | Luminosity | Snow |
|---|---|---|---|---|---|---|---|
| 1778105288 | 13.33° C | 30% | 1015.8 hPa | 0 mm | - | 108 W/m² | - |
| 1778104375 | 13.89° C | 31% | 1015.8 hPa | 0 mm | - | 159 W/m² | - |
| 1778104071 | 13.89° C | 30% | 1015.8 hPa | 0 mm | - | 201 W/m² | - |
| 1778102861 | 13.33° C | 32% | 1015.9 hPa | 0 mm | - | 357 W/m² | - |
| 1778100432 | 12.22° C | 33% | 1016.6 hPa | 0 mm | - | 139 W/m² | - |
| 1778098615 | 13.33° C | 35% | 1016.6 hPa | 0 mm | - | 127 W/m² | - |
| 1778098311 | 13.33° C | 33% | 1016.7 hPa | 0 mm | - | 780 W/m² | - |
| 1778098008 | 13.33° C | 33% | 1016.7 hPa | 0 mm | - | 255 W/m² | - |
| 1778095583 | 12.22° C | 34% | 1017 hPa | 0 mm | - | 416 W/m² | - |
| 1778094976 | 12.78° C | 35% | 1017.1 hPa | 0 mm | - | 215 W/m² | - |
| 1778091944 | 12.22° C | 35% | 1017.2 hPa | 0 mm | - | 227 W/m² | - |
| 1778089822 | 12.22° C | 36% | 1017.7 hPa | 0 mm | - | 245 W/m² | - |
| 1778089521 | 11.67° C | 37% | 1017.7 hPa | 0 mm | - | 332 W/m² | - |
| 1778089216 | 11.67° C | 36% | 1017.7 hPa | 0 mm | - | 349 W/m² | - |
| 1778087702 | 10.56° C | 39% | 1018 hPa | 0 mm | - | 262 W/m² | - |
| 1778087095 | 10.56° C | 41% | 1017.8 hPa | 0 mm | - | 298 W/m² | - |
| 1778085577 | 10° C | 41% | 1018 hPa | 0 mm | - | 206 W/m² | - |
| 1778085272 | 10° C | 40% | 1018 hPa | 0 mm | - | 176 W/m² | - |
| 1778084967 | 10.56° C | 39% | 1018 hPa | 0 mm | - | 178 W/m² | - |
| 1778080824 | 10° C | 43% | 1017.9 hPa | 0 mm | - | 754 W/m² | - |
| 1778080218 | 9.44° C | 44% | 1018 hPa | 0 mm | - | 659 W/m² | - |
| 1778079308 | 8.89° C | 46% | 1017.9 hPa | 0 mm | - | 603 W/m² | - |
| 1778076587 | 7.22° C | 52% | 1017.7 hPa | 0 mm | - | 150 W/m² | - |
| 1778076283 | 7.22° C | 55% | 1017.5 hPa | 0 mm | - | 144 W/m² | - |
| 1778075677 | 6.67° C | 58% | 1017.7 hPa | 0 mm | - | 47 W/m² | - |
* Rain latest hour (hover to see other rain measurements)
** Current wind speed in m/s (hover to see current wind gust speed)